Regional Weather Roundup
Issued by NWS Northern Indiana

Home | Current Version | Previous Version | Text Only | Print | Product List | Glossary Off
Versions: 1 2 3 4 5 6 7 8 9 10 11 12 13 14 15 16 17 18 19 20 21 22 23 24 25 26 27 28 29 30 31 32 33 34 35 36 37 38 39 40 41 42 43 44 45 46 47 48 49 50

000
ASUS43 KIWX 231700
RWRIWX

KIWX WEATHER ROUNDUP
NATIONAL WEATHER SERVICE NORTHERN INDIANA
1200 PM EST THU FEB 23 2017

NOTE: "FAIR" INDICATES FEW OR NO CLOUDS BELOW 12,000 FEET WITH NO
SIGNIFICANT WEATHER AND/OR OBSTRUCTIONS TO VISIBILITY.

* THESE STATIONS ARE NOT UNDER NWS QUALITY CONTROL. THEY ALSO MAY NOT
  REPORT WEATHER SUCH AS PRECIPITATION OR FOG.

INZ001>027-231800-
NORTHERN INDIANA

CITY           SKY/WX    TMP DP  RH WIND       PRES   REMARKS
GARY*          CLOUDY    48  39  71 N17       29.82R
MICHIGAN CITY* CLOUDY    45  41  87 N10       29.82R
KNOX*          MOSUNNY   55  28  35 N10       29.77F
SOUTH BEND     PTSUNNY   50  43  77 N10       29.79S
ELKHART*       PTSUNNY   54  45  71 N8        29.79R
GOSHEN         SUNNY     58  46  64 W7        29.78R
ANGOLA*        SUNNY     61  50  67 W5        29.76R
FORT WAYNE     PTSUNNY   62  50  64 SW8       29.76F
PERU/GRISSOM   SUNNY     63  50  63 S5        29.75F

$$
INZ028>050-231800-
CENTRAL INDIANA

CITY           SKY/WX    TMP DP  RH WIND       PRES   REMARKS
LAFAYETTE      MOSUNNY   61  53  75 S7        29.74F
KOKOMO*        SUNNY     63  52  67 S5        29.77F
MUNCIE*        CLOUDY    61  55  81 SW7       29.78F
INDIANAPOLIS   PTSUNNY   63  56  78 S10       29.77F

$$
MIZ043>046-050>051-056>058-064>065-071>073-077>080-231800-
SOUTHWEST LOWER MICHIGAN

CITY           SKY/WX    TMP DP  RH WIND       PRES   REMARKS
BATTLE CREEK   MOSUNNY   53  44  71 W10       29.79R
BENTON HARBOR  CLOUDY    43  38  82 VRB6      29.81S
COLDWATER*     SUNNY     58  46  63 W6        29.77R
HILLSDALE*     SUNNY     61  46  59 W9        29.75R
HOLLAND        CLOUDY    44  39  82 SW5       29.79F
GRAND RAPIDS   PTSUNNY   49  39  68 W5        29.78R
KALAMAZOO      CLOUDY    50  41  71 NW9       29.80R
STURGIS*       SUNNY     56  46  69 W7        29.77R
THREE RIVERS*  FAIR      54  44  69 NW10      29.79R

$$
OHZ001>008-015>018-024>025-231800-
NORTHWEST OHIO

CITY           SKY/WX    TMP DP  RH WIND       PRES   REMARKS
DEFIANCE       MOSUNNY   61  49  64 SW7       29.76R
FINDLAY        CLOUDY    62  51  67 SW12      29.76S
TOLEDO EXPRESS SUNNY     63  52  67 W13       29.74S
TOLEDO METCALF SUNNY     63  52  67 SW12      29.74F
LIMA           CLOUDY    59  55  87 SW10      29.78S

$$
AND FOR LAKE MICHIGAN COASTAL AND OPEN LAKE BUOY OBSERVATIONS

STATION/POSITION TEMP    WIND        PRES    VSBY  WAVE
                 AIR SEA DIR/SP/G                  HT/PER
                 (F)     (DEG/KT/KT) (MB)    (MI)  (FT/S)
CALUMET HARBOR    45      20/  9/ 13 1009.4
MICHIGAN CITY     39      20/  6/  7   N/A
BURNS HARBOR      41      50/  6/  7 1010.2S
SAINT JOSEPH      44      30/  5/ 11 1010.5

$$
&&



USA.gov is the U.S. government's official web portal to all federal, state and local government web resources and services.